This is the latest recevied weather packets stored in our database for station/object OK1HOL-13. If no packets are shown the sender has not sent any weather packets the latest 10 day(s).
| Time | Temp. | Humidity | Pressure | Rain* | Wind** | Luminosity | Snow |
|---|---|---|---|---|---|---|---|
| 1777557083 | 17.22° C | 21% | 1029.5 hPa | - | - | 402 W/m² | - |
| 1777556483 | 17.78° C | 20% | 1029.6 hPa | - | - | 415 W/m² | - |
| 1777555883 | 17.78° C | 20% | 1029.6 hPa | - | - | 431 W/m² | - |
| 1777555283 | 17.22° C | 21% | 1029.8 hPa | - | - | 431 W/m² | - |
| 1777554683 | 17.78° C | 20% | 1029.7 hPa | - | - | 431 W/m² | - |
| 1777554083 | 18.33° C | 20% | 1030 hPa | - | - | 431 W/m² | - |
| 1777553483 | 16.67° C | 21% | 1030.1 hPa | - | - | 431 W/m² | - |
| 1777552883 | 16.67° C | 20% | 1030.2 hPa | - | - | 431 W/m² | - |
| 1777552283 | 16.67° C | 20% | 1030.2 hPa | - | - | 431 W/m² | - |
| 1777551683 | 17.22° C | 19% | 1030.4 hPa | - | - | 431 W/m² | - |
| 1777551083 | 18.33° C | 18% | 1030.6 hPa | - | - | 431 W/m² | - |
| 1777550483 | 16.67° C | 19% | 1030.7 hPa | - | - | 431 W/m² | - |
| 1777549883 | 17.78° C | 18% | 1030.7 hPa | - | - | 431 W/m² | - |
| 1777549283 | 16.67° C | 19% | 1030.6 hPa | - | - | 431 W/m² | - |
| 1777548683 | 16.11° C | 20% | 1030.8 hPa | - | - | 431 W/m² | - |
| 1777548083 | 15.56° C | 20% | 1031 hPa | - | - | 431 W/m² | - |
| 1777547483 | 16.67° C | 20% | 1031.1 hPa | - | - | 431 W/m² | - |
| 1777546883 | 15° C | 21% | 1031.3 hPa | - | - | 431 W/m² | - |
| 1777546283 | 15.56° C | 20% | 1031.4 hPa | - | - | 431 W/m² | - |
| 1777545683 | 14.44° C | 22% | 1031.6 hPa | - | - | 431 W/m² | - |
| 1777545083 | 13.89° C | 22% | 1031.7 hPa | - | - | 431 W/m² | - |
| 1777544483 | 13.89° C | 22% | 1031.9 hPa | - | - | 431 W/m² | - |
| 1777543883 | 14.44° C | 21% | 1032 hPa | - | - | 431 W/m² | - |
| 1777543283 | 14.44° C | 21% | 1032.1 hPa | - | - | 431 W/m² | - |
| 1777542683 | 13.33° C | 23% | 1032.2 hPa | - | - | 431 W/m² | - |
* Rain since midnight (hover to see other rain measurements)
** Current wind speed in m/s (hover to see current wind gust speed)